Find DSP F12

NORAD ID: 15453 Int'l Des: 1984-129 Owner: AFSD Country: US operational
HEOCIRCULAR

Aktuelle Ansicht

3D-Globus wird geladen...

About DSP F12

DSP F12 (NORAD 15453) is a satellite launched Dec 22, 1984 by AFSD of US. It operates in HEO, CIRCULAR orbit with a mass of 1680.00 kg.

Nächste Überflüge

Passes for default location (London). Set your location on the main map for personalized predictions.

Höhenverlauf

Loading altitude history...

Zweizeiliger Elementsatz

1 15453U 84129A 26194.59228080 .00000028 00000-0 00000+0 0 9997
2 15453 11.4505 320.7476 0002539 281.2498 131.6424 0.98854870 26310
Epoch: 13. Juli 2026 • Age: 17 hours

Aktueller Status

Höhe 36180.1 km
Apogäum / Perigäum N/A
Geschwindigkeit 3.06 km/s
Subsatellitenpunkt -8.85°S, 134.15°W
Startdatum 22. Dez. 1984
Alter 41.5 years
Typ military

Technische Details

Klassifizierung Payload
Masse 1680.00 kg
Trockenmasse 1600.00 kg
Gesamtmasse 1680.00 kg
Länge 7.10 m
Durchmesser 3.10 m
Spannweite 8.60 m
Form Cyl + 4 Pan
Hersteller TRW
Bus-Typ DSP P2U
Phasenstatus Unknown Transfer Status
Besitzer/Staat AFSD/US

Most Searched